Location: Johnson City
(36.3130°N, 82.3540°W)
Time: 07:38:05
(UTC-05:00)

ISS - Pass Details

Date: 08 December 2021
Orbit: 413 x 422 km, 51.6° (Epoch: 18 January)

Event Time Altitude Azimuth Distance (km) Brightness Sun altitude
Rises 18:07:21 0° 310° (NW) 2,377 0.5 -10.6°
Reaches altitude 10° 18:09:28 10° 310° (NW) 1,508 -0.5 -11.0°
Maximum altitude 18:12:51 85° 223° (SW) 426 -3.7 -11.6°
Drops below altitude 10° 18:16:13 10° 134° (SE) 1,493 -1.2 -12.2°
Enters shadow 18:17:49 - 134° (SE) 2,151 -0.4 -12.5°
